EW2235 Weather Reports


Display with metric or nautical units.
time (UTC)temp
F
wind
direction
speed
MPH
gust
MPH
rain 1hr
in
rain 24hr
in
rain mn
in
humidity
%
barometer
mb
20260508202826 62 153 0.0 4.0 0.00 0.00 0.00 57 1021.9
20260508202333 62 220 1.0 6.0 0.00 0.00 0.00 58 1021.9
20260508201816 62 357 1.0 6.0 0.00 0.00 0.00 58 1022.0
20260508201314 61 128 0.0 6.0 0.00 0.00 0.00 59 1022.0
20260508200816 61 172 2.0 8.0 0.00 0.00 0.00 59 1022.0
20260508200323 60 131 1.0 8.0 0.00 0.00 0.00 60 1022.0
20260508195832 60 267 2.0 6.0 0.00 0.00 0.00 59 1022.0
20260508195311 61 191 1.0 10.0 0.00 0.00 0.00 59 1022.0
20260508194327 61 181 3.0 9.0 0.00 0.00 0.00 59 1022.1
20260508193815 60 240 0.0 8.0 0.00 0.00 0.00 62 1022.2
20260508193314 60 319 3.0 8.0 0.00 0.00 0.00 57 1022.0
20260508192823 61 303 2.0 8.0 0.00 0.00 0.00 58 1022.0
20260508192329 59 27 0.0 5.0 0.00 0.00 0.00 61 1022.0
20260508191838 59 302 1.0 6.0 0.00 0.00 0.00 61 1022.0
20260508190820 59 182 0.0 5.0 0.00 0.00 0.00 62 1022.1
20260508190326 59 296 1.0 5.0 0.00 0.00 0.00 62 1022.2
20260508185828 58 302 0.0 6.0 0.00 0.00 0.00 65 1022.2
20260508185335 57 209 1.0 6.0 0.00 0.00 0.00 65 1022.2
20260508184818 57 323 3.0 5.0 0.00 0.00 0.00 65 1022.3
20260508183827 58 257 0.0 4.0 0.00 0.00 0.00 65 1022.2
20260508183333 58 136 0.0 3.0 0.00 0.00 0.00 64 1022.3
20260508182837 58 109 1.0 6.0 0.00 0.00 0.00 64 1022.3
20260508182343 58 221 1.0 6.0 0.00 0.00 0.00 62 1022.2
20260508181939 58 126 0.0 3.0 0.00 0.00 0.00 65 1022.2
20260508181351 57 211 0.0 2.0 0.00 0.00 0.00 69 1022.0
20260508180840 55 46 0.0 6.0 0.00 0.00 0.00 69 1022.1
20260508180336 55 313 2.0 6.0 0.00 0.00 0.00 69 1022.0
20260508175853 57 313 0.0 6.0 0.00 0.00 0.00 67 1022.0
20260508175339 57 91 1.0 4.0 0.00 0.00 0.00 66 1021.9
20260508174841 56 268 0.0 3.0 0.00 0.00 0.00 69 1021.9
20260508174348 56 146 0.0 6.0 0.00 0.00 0.00 69 1021.9
20260508173834 56 293 1.0 6.0 0.00 0.00 0.00 69 1021.8
20260508173333 55 163 1.0 6.0 0.00 0.00 0.00 74 1021.8
20260508172843 54 134 0.0 3.0 0.00 0.00 0.00 76 1021.8
20260508172349 54 303 1.0 3.0 0.00 0.00 0.00 75 1021.7
20260508171859 54 313 0.0 5.0 0.00 0.00 0.00 75 1021.7
20260508171338 54 179 1.0 5.0 0.00 0.00 0.00 74 1021.6
20260508170847 54 307 0.0 4.0 0.00 0.00 0.00 76 1021.6
20260508170325 54 323 0.0 4.0 0.00 0.00 0.00 76 1021.5
20260508165835 53 137 0.0 2.0 0.00 0.00 0.00 77 1021.4
20260508165314 53 297 0.0 3.0 0.00 0.00 0.00 79 1021.4
20260508164817 52 300 0.0 1.0 0.00 0.00 0.00 78 1021.4
20260508164323 52 264 0.0 1.0 0.00 0.00 0.00 77 1021.3
20260508163825 53 359 0.0 0.0 0.00 0.00 0.00 78 1021.0
20260508163325 52 98 0.0 0.0 0.00 0.00 0.00 78 1021.1
20260508162815 52 309 0.0 0.0 0.00 0.00 0.00 79 1021.0
20260508162314 52 248 0.0 1.0 0.00 0.00 0.00 79 1021.1
20260508161816 52 122 0.0 4.0 0.00 0.00 0.00 79 1021.0
20260508161324 52 157 1.0 4.0 0.00 0.00 0.00 80 1021.2
20260508160826 51 282 0.0 3.0 0.00 0.00 0.00 80 1021.2
20260508160332 52 310 0.0 2.0 0.00 0.00 0.00 80 1020.8
20260508155815 52 182 0.0 2.0 0.00 0.00 0.00 79 1020.8
20260508155314 51 292 0.0 1.0 0.00 0.00 0.00 81 1020.9
20260508154824 51 288 0.0 2.0 0.00 0.00 0.00 81 1020.9
20260508154323 51 360 0.0 2.0 0.00 0.00 0.00 82 1020.9
20260508153826 50 103 0.0 2.0 0.00 0.00 0.00 82 1021.0
20260508153332 50 144 0.0 3.0 0.00 0.00 0.00 82 1020.8
20260508152815 50 157 1.0 5.0 0.00 0.00 0.00 83 1020.8
20260508151829 50 157 0.0 4.0 0.00 0.00 0.00 83 1020.8
20260508151328 50 144 1.0 4.0 0.00 0.00 0.00 83 1020.9
20260508150830 50 138 0.0 2.0 0.00 0.00 0.00 83 1020.9
20260508150318 50 141 0.0 0.0 0.00 0.00 0.00 84 1020.9
20260508145819 50 164 0.0 0.0 0.00 0.00 0.00 83 1020.9
20260508145318 49 160 0.0 0.0 0.00 0.00 0.00 84 1021.0
20260508144828 49 198 0.0 0.0 0.00 0.00 0.00 84 1021.0
20260508144327 49 191 0.0 0.0 0.00 0.00 0.00 85 1021.0
20260508143837 49 212 0.0 0.0 0.00 0.00 0.00 85 1021.0
20260508143315 49 318 0.0 1.0 0.00 0.00 0.00 85 1021.0
20260508142818 49 191 0.0 1.0 0.00 0.00 0.00 85 1021.0
20260508142317 49 339 0.0 2.0 0.00 0.00 0.00 85 1021.0
20260508141827 49 181 0.0 2.0 0.00 0.00 0.00 86 1021.0
20260508141326 49 316 0.0 0.0 0.00 0.00 0.00 85 1020.8
20260508140835 48 269 0.0 0.0 0.00 0.00 0.00 86 1020.8
20260508140314 48 299 0.0 0.0 0.00 0.00 0.00 87 1020.5
20260508135817 48 299 0.0 1.0 0.00 0.00 0.00 87 1020.5
20260508135323 47 165 0.0 0.0 0.00 0.00 0.00 88 1020.4
20260508134826 47 165 0.0 0.0 0.00 0.00 0.00 88 1020.2
20260508134324 47 112 0.0 0.0 0.00 0.00 0.00 87 1020.1
20260508133814 47 169 0.0 0.0 0.00 0.00 0.00 87 1020.1
20260508133313 47 169 0.0 0.0 0.00 0.00 0.00 87 1019.9
20260508132816 47 212 0.0 0.0 0.00 0.00 0.00 86 1019.8
20260508132322 47 223 0.0 1.0 0.00 0.00 0.00 86 1019.7
20260508131824 47 168 0.0 1.0 0.00 0.00 0.00 86 1019.7
20260508131331 47 193 0.0 0.0 0.00 0.00 0.00 86 1019.6
20260508130817 47 193 0.0 0.0 0.00 0.00 0.00 85 1019.5
20260508130323 47 214 0.0 0.0 0.00 0.00 0.00 85 1019.3
20260508125319 48 123 0.0 0.0 0.00 0.00 0.00 85 1019.2
20260508124820 48 123 0.0 0.0 0.00 0.00 0.00 84 1019.1
20260508124320 48 147 0.0 0.0 0.00 0.00 0.00 85 1019.0
20260508123829 48 128 0.0 0.0 0.00 0.00 0.00 85 1018.9
20260508123329 49 128 0.0 0.0 0.00 0.00 0.00 84 1019.0
20260508122318 49 129 0.0 1.0 0.00 0.00 0.00 84 1018.8
20260508121820 49 105 0.0 0.0 0.00 0.00 0.00 84 1018.8
20260508121326 49 136 0.0 1.0 0.00 0.00 0.00 83 1018.8
20260508120829 49 130 0.0 1.0 0.00 0.00 0.00 83 1018.8
20260508120328 49 99 0.0 0.0 0.00 0.00 0.00 83 1018.7
20260508115838 49 149 0.0 0.0 0.00 0.00 0.00 82 1018.8
20260508114826 50 149 0.0 0.0 0.00 0.00 0.00 81 1018.7
20260508114333 50 150 0.0 0.0 0.00 0.00 0.00 81 1018.6
20260508113815 50 133 0.0 1.0 0.00 0.00 0.00 81 1018.6
20260508113315 50 148 0.0 5.0 0.00 0.00 0.00 81 1018.5
20260508112824 50 131 2.0 5.0 0.00 0.00 0.00 81 1018.4
20260508112323 51 139 0.0 5.0 0.00 0.00 0.00 80 1018.4
20260508111826 51 147 1.0 5.0 0.00 0.00 0.00 80 1018.4
20260508111332 51 131 0.0 4.0 0.00 0.00 0.00 80 1018.2
20260508110814 51 141 0.0 4.0 0.00 0.00 0.00 79 1018.2
20260508110314 51 125 0.0 4.0 0.00 0.00 0.00 79 1018.0
20260508105821 52 161 0.0 5.0 0.00 0.00 0.00 78 1018.0
20260508105322 52 130 1.0 5.0 0.00 0.00 0.00 78 1018.0
20260508104832 52 133 0.0 1.0 0.00 0.00 0.00 78 1017.9
20260508104330 52 146 0.0 1.0 0.00 0.00 0.00 78 1017.9
20260508103813 52 130 0.0 1.0 0.00 0.00 0.00 79 1017.9
20260508103312 52 130 0.0 1.0 0.00 0.00 0.00 77 1017.8
20260508102822 52 109 0.0 1.0 0.00 0.00 0.00 79 1017.8
20260508102321 52 130 0.0 1.0 0.00 0.00 0.00 80 1017.8
20260508101830 52 134 0.0 0.0 0.00 0.00 0.00 82 1017.7
20260508101315 52 126 0.0 0.0 0.00 0.00 0.00 83 1017.7
20260508100817 51 141 0.0 0.0 0.00 0.00 0.00 84 1017.7
20260508100320 51 148 0.0 0.0 0.00 0.00 0.00 84 1017.7
20260508095823 51 140 0.0 0.0 0.00 0.00 0.00 83 1017.7
20260508095329 52 140 0.0 0.0 0.00 0.00 0.00 82 1017.6
20260508094832 52 140 0.0 0.0 0.00 0.00 0.00 82 1017.6
20260508094338 52 140 0.0 0.0 0.00 0.00 0.00 82 1017.4
20260508093820 52 140 0.0 0.0 0.00 0.00 0.00 82 1017.4
20260508093320 52 140 0.0 0.0 0.00 0.00 0.00 81 1017.3
20260508092822 52 140 0.0 0.0 0.00 0.00 0.00 81 1017.3
20260508092329 52 140 0.0 0.0 0.00 0.00 0.00 81 1017.3
20260508091831 53 140 0.0 0.0 0.00 0.00 0.00 80 1017.3
20260508091337 53 140 0.0 0.0 0.00 0.00 0.00 80 1017.3
20260508090820 53 140 0.0 0.0 0.00 0.00 0.00 79 1017.3
20260508090319 53 139 0.0 0.0 0.00 0.00 0.00 79 1017.3
20260508085828 53 139 0.0 0.0 0.00 0.00 0.00 79 1017.2
20260508085315 53 137 0.0 0.0 0.00 0.00 0.00 78 1017.2
20260508084818 53 137 0.0 0.0 0.00 0.00 0.00 78 1017.2
20260508084318 54 137 0.0 0.0 0.00 0.00 0.00 77 1017.1
20260508083827 54 137 0.0 0.0 0.00 0.00 0.00 77 1017.1
20260508083326 54 137 0.0 0.0 0.00 0.00 0.00 77 1017.1
20260508082836 54 137 0.0 0.0 0.00 0.00 0.00 76 1017.1
20260508082315 54 137 0.0 0.0 0.00 0.00 0.00 75 1017.0
20260508081818 54 137 0.0 0.0 0.00 0.00 0.00 75 1017.0
20260508081324 55 137 0.0 0.0 0.00 0.00 0.00 75 1017.0
20260508080827 55 137 0.0 0.0 0.00 0.00 0.00 74 1017.0
20260508080326 55 137 0.0 0.0 0.00 0.00 0.00 74 1017.0
20260508075816 55 137 0.0 0.0 0.00 0.00 0.00 74 1017.0
20260508075316 55 137 0.0 0.0 0.00 0.00 0.00 73 1016.9
20260508074818 55 137 0.0 0.0 0.00 0.00 0.00 73 1016.9
20260508074324 55 137 0.0 0.0 0.00 0.00 0.00 73 1016.9
20260508073319 55 137 0.0 0.0 0.00 0.00 0.00 72 1016.9
20260508072829 56 137 0.0 0.0 0.00 0.00 0.00 71 1017.0
20260508072312 56 137 0.0 0.0 0.00 0.00 0.00 71 1016.9
20260508071814 56 137 0.0 0.0 0.00 0.00 0.00 71 1016.8
20260508071320 56 188 0.0 0.0 0.00 0.00 0.00 71 1016.9
20260508070823 56 188 0.0 0.0 0.00 0.00 0.00 70 1016.9
20260508070322 56 188 0.0 0.0 0.00 0.00 0.00 69 1016.9
20260508065831 56 188 0.0 0.0 0.00 0.00 0.00 69 1016.9
20260508065331 56 188 0.0 0.0 0.00 0.00 0.00 69 1016.9
20260508064813 57 188 0.0 0.0 0.00 0.00 0.00 69 1016.9
20260508064320 57 128 0.0 0.0 0.00 0.00 0.00 68 1016.9
20260508063822 57 128 0.0 0.0 0.00 0.00 0.00 68 1016.9
20260508063328 57 128 0.0 0.0 0.00 0.00 0.00 67 1016.9
20260508062831 57 128 0.0 0.0 0.00 0.00 0.00 65 1016.8
20260508062358 58 128 0.0 0.0 0.00 0.00 0.00 65 1016.9
20260508061814 58 128 0.0 0.0 0.00 0.00 0.00 64 1016.9
20260508061321 58 128 0.0 0.0 0.00 0.00 0.00 64 1016.8
20260508060823 58 128 0.0 0.0 0.00 0.00 0.00 63 1016.9
20260508060322 58 128 0.0 0.0 0.00 0.00 0.00 62 1016.9
20260508055832 58 128 0.0 0.0 0.00 0.00 0.00 62 1016.9
20260508055328 58 128 0.0 0.0 0.00 0.00 0.00 61 1016.9
20260508054838 59 128 0.0 0.0 0.00 0.00 0.00 60 1016.8
20260508054324 59 128 0.0 0.0 0.00 0.00 0.00 59 1016.9
20260508053826 60 128 0.0 0.0 0.00 0.00 0.00 58 1016.8
20260508053332 60 128 0.0 0.0 0.00 0.00 0.00 57 1016.9
20260508052815 60 128 0.0 0.0 0.00 0.00 0.00 57 1016.8
20260508052335 60 128 0.0 0.0 0.00 0.00 0.00 56 1016.8
20260508051843 60 127 0.0 0.0 0.00 0.00 0.00 56 1016.9
20260508051345 60 116 0.0 0.0 0.00 0.00 0.00 55 1016.8
20260508050338 60 146 0.0 0.0 0.00 0.00 0.00 56 1016.8
20260508045839 60 146 0.0 0.0 0.00 0.00 0.00 57 1016.8
20260508045344 60 146 0.0 0.0 0.00 0.00 0.00 56 1016.9
20260508044852 60 146 0.0 2.0 0.00 0.00 0.00 56 1016.8
20260508044358 60 158 0.0 2.0 0.00 0.00 0.00 58 1016.8
20260508043819 60 131 0.0 0.0 0.00 0.00 0.00 58 1016.8
20260508043318 61 129 0.0 0.0 0.00 0.00 0.00 58 1016.9
20260508042828 61 121 0.0 0.0 0.00 0.00 0.00 57 1016.8
20260508042327 61 137 0.0 0.0 0.00 0.00 0.00 56 1016.8
20260508041816 61 137 0.0 0.0 0.00 0.00 0.00 55 1016.8
20260508041323 62 137 0.0 0.0 0.00 0.00 0.00 55 1016.6
20260508040825 62 137 0.0 0.0 0.00 0.00 0.00 55 1016.6
20260508040325 62 138 0.0 0.0 0.00 0.00 0.00 55 1016.6
20260508035814 62 137 0.0 0.0 0.00 0.00 0.00 54 1016.6
20260508035312 62 137 0.0 0.0 0.00 0.00 0.00 55 1016.5
20260508034815 62 137 0.0 0.0 0.00 0.00 0.00 54 1016.5
20260508034321 62 137 0.0 0.0 0.00 0.00 0.00 54 1016.5
20260508033823 63 122 0.0 0.0 0.00 0.00 0.00 53 1016.4
20260508033330 63 122 0.0 0.0 0.00 0.00 0.00 53 1016.4
20260508032832 63 122 0.0 0.0 0.00 0.00 0.00 53 1016.4
20260508032311 64 122 0.0 0.0 0.00 0.00 0.00 54 1016.3
20260508031815 64 122 0.0 0.0 0.00 0.00 0.00 54 1016.3
20260508031342 65 122 0.0 0.0 0.00 0.00 0.00 52 1016.2
20260508030852 65 122 0.0 0.0 0.00 0.00 0.00 52 1016.1
20260508030357 65 122 0.0 0.0 0.00 0.00 0.00 52 1016.1
20260508025840 65 122 0.0 0.0 0.00 0.00 0.00 52 1016.1
20260508025346 66 122 0.0 0.0 0.00 0.00 0.00 52 1016.1
20260508024856 66 122 0.0 0.0 0.00 0.00 0.00 52 1016.1
20260508024335 66 122 0.0 0.0 0.00 0.00 0.00 51 1016.2
20260508023845 67 122 0.0 0.0 0.00 0.00 0.00 50 1016.2
20260508023351 67 122 0.0 0.0 0.00 0.00 0.00 50 1016.2
20260508022812 67 122 0.0 0.0 0.00 0.00 0.00 49 1016.2
20260508022312 67 122 0.0 0.0 0.00 0.00 0.00 48 1016.2
20260508021822 67 122 0.0 0.0 0.00 0.00 0.00 48 1016.2
20260508021321 67 129 0.0 0.0 0.00 0.00 0.00 48 1016.3
20260508020831 68 58 0.0 0.0 0.00 0.00 0.00 48 1016.2
20260508020330 68 58 0.0 0.0 0.00 0.00 0.00 47 1016.2
20260508015812 68 50 0.0 0.0 0.00 0.00 0.00 47 1016.2
20260508015312 68 49 0.0 2.0 0.00 0.00 0.00 46 1016.3
20260508014842 68 5 0.0 2.0 0.00 0.00 0.00 49 1016.4
20260508014349 69 336 0.0 5.0 0.00 0.00 0.00 48 1016.4
20260508013858 69 15 0.0 5.0 0.00 0.00 0.00 47 1016.4
20260508013338 69 319 0.0 5.0 0.00 0.00 0.00 46 1016.4
20260508012847 70 352 2.0 5.0 0.00 0.00 0.00 46 1016.5
20260508012354 70 355 0.0 4.0 0.00 0.00 0.00 45 1016.5
20260508011836 70 330 0.0 5.0 0.00 0.00 0.00 45 1016.5
20260508011342 70 347 1.0 5.0 0.00 0.00 0.00 43 1016.5
20260508010859 70 324 0.0 4.0 0.00 0.00 0.00 45 1016.6
20260508010317 70 309 0.0 6.0 0.00 0.00 0.00 45 1016.6
20260508005820 70 325 0.0 0.0 0.00 0.00 0.00 45 1016.6
20260508005326 69 344 0.0 7.0 0.00 0.00 0.00 43 1016.7
20260508004829 70 6 4.0 7.0 0.00 0.00 0.00 42 1016.8
20260508004328 70 314 0.0 2.0 0.00 0.00 0.00 41 1016.8
20260508003818 70 137 0.0 3.0 0.00 0.00 0.00 42 1016.8
20260508003316 70 342 0.0 1.0 0.00 0.00 0.00 41 1016.9
20260508002818 70 344 0.0 3.0 0.00 0.00 0.00 40 1017.0
20260508002345 70 358 1.0 3.0 0.00 0.00 0.00 40 1017.0
20260508001853 70 281 0.0 0.0 0.00 0.00 0.00 40 1016.9
20260508001354 70 293 0.0 3.0 0.00 0.00 0.00 41 1016.9
20260508000835 70 327 1.0 3.0 0.00 0.00 0.00 39 1017.0
20260508000342 69 277 0.0 7.0 0.00 0.00 0.00 39 1017.0
20260507235849 69 11 1.0 7.0 0.00 0.00 0.00 38 1017.1
20260507235348 69 221 2.0 7.0 0.00 0.00 0.00 38 1017.1
20260507234836 69 289 0.0 6.0 0.00 0.00 0.00 38 1017.2
20260507234313 69 321 2.0 6.0 0.00 0.00 0.00 38 1017.2
20260507233823 68 340 0.0 3.0 0.00 0.00 0.00 38 1017.2
20260507233322 68 339 0.0 5.0 0.00 0.00 0.00 36 1017.3
20260507232824 69 15 1.0 5.0 0.00 0.00 0.00 35 1017.3
20260507232327 69 348 1.0 5.0 0.00 0.00 0.00 34 1017.5
20260507231830 68 342 0.0 5.0 0.00 0.00 0.00 32 1017.5
20260507231336 68 327 0.0 8.0 0.00 0.00 0.00 29 1017.6
20260507230819 68 326 5.0 8.0 0.00 0.00 0.00 29 1017.6
20260507230318 68 346 0.0 4.0 0.00 0.00 0.00 33 1017.6
20260507225827 68 291 0.0 7.0 0.00 0.00 0.00 32 1017.7
20260507225327 68 300 1.0 7.0 0.00 0.00 0.00 34 1017.8
20260507224829 68 340 0.0 5.0 0.00 0.00 0.00 36 1017.9
20260507224335 67 58 1.0 7.0 0.00 0.00 0.00 40 1017.9
20260507223317 67 305 0.0 4.0 0.00 0.00 0.00 42 1018.0
20260507222827 67 312 1.0 4.0 0.00 0.00 0.00 43 1018.0
20260507222326 66 335 0.0 6.0 0.00 0.00 0.00 45 1018.2
20260507221836 66 21 0.0 7.0 0.00 0.00 0.00 45 1018.2
20260507221315 66 4 4.0 7.0 0.00 0.00 0.00 47 1018.3
20260507220817 67 356 2.0 7.0 0.00 0.00 0.00 47 1018.4
20260507220317 67 332 0.0 5.0 0.00 0.00 0.00 48 1018.4
20260507215826 66 218 0.0 5.0 0.00 0.00 0.00 49 1018.4
20260507215325 66 354 2.0 6.0 0.00 0.00 0.00 48 1018.5
20260507214836 67 306 3.0 6.0 0.00 0.00 0.00 47 1018.5
20260507214318 67 296 1.0 5.0 0.00 0.00 0.00 47 1018.5
20260507213821 68 129 1.0 5.0 0.00 0.00 0.00 48 1018.6
20260507213327 66 176 2.0 6.0 0.00 0.00 0.00 48 1018.6
20260507212846 65 354 3.0 6.0 0.00 0.00 0.00 48 1018.7
20260507212349 65 9 0.0 6.0 0.00 0.00 0.00 50 1018.7
20260507211838 65 345 2.0 6.0 0.00 0.00 0.00 50 1018.8
20260507211339 65 359 2.0 6.0 0.00 0.00 0.00 50 1018.8
20260507210848 66 327 3.0 6.0 0.00 0.00 0.00 47 1018.9
20260507210354 68 209 0.0 1.0 0.00 0.00 0.00 46 1019.0
20260507205904 66 193 0.0 5.0 0.00 0.00 0.00 47 1019.0
20260507205343 66 346 0.0 1.0 0.00 0.00 0.00 50 1019.1
20260507204853 65 124 0.0 5.0 0.00 0.00 0.00 50 1019.1
20260507204331 64 293 1.0 7.0 0.00 0.00 0.00 53 1019.2
20260507203841 64 351 1.0 6.0 0.00 0.00 0.00 55 1019.2
20260507203320 63 352 0.0 4.0 0.00 0.00 0.00 53 1019.2